www.pogodaiklimat.ru

Погода и климат >> Архив погоды >> Боливия >> Сан-Борха


ПОГОДА в Сан-Борхе

  • Прогноз погоды в Сан-Борхе
  • Монитор погоды в Сан-Борхе

АРХИВ ПОГОДЫ в Сан-Борхе

Время (UTC), дата Ветер
(напр.,м/с)
 
Видим.   Явления Облачность Т
(С)
Тd
(С)
f
(%)
Тe
(С)
Тes
(С)
Комфортность P
(гПа)
Po
(гПа)
Тmin
(С)
Tmax
(С)
R
(мм)
R24
(мм)
S
(см)
12 11.07 штиль 0 8000 м дымка 1/0 2000 м
[Ac trans]
+20.2 +19.9 98 +24 +26 комфорт 1012.6 989.8 +17.5
15 11.07 СЗ 5 50 км ясно +28.0 +22.0 70 +36 +42 очень
душно
1013.3 990.4
18 11.07 СЗ 6 20 км 4/4 600 м
[Cu hum]
+30.7 +21.5 58 +39 +41 очень
душно
1010.6 987.9
21 11.07 СЗ 3 20 км 1/1 600 м
[Cu hum]
+30.9 +21.3 57 +39 +40 очень
душно
1008.7 986.1 +31.9
12 12.07 штиль 0 7000 м дым ясно +20.0 +19.7 98 +23 +25 комфорт 1011.4 988.7 +19.0
15 12.07 С 4 20 км ясно +28.8 +22.5 69 +38 +46 очень
душно
1012.1 989.8
18 12.07 С 5 50 км 5/5 600 м
[Cu med, cong]
+31.0 +22.6 61 +41 +44 опасность
перегрева
1010.2 987.4
21 12.07 СЗ 3 50 км 3/3 600 м
[Cu med, cong]
+31.0 +22.3 60 +40 +41 очень
душно
1008.8 986.1 +32.2
12 13.07 штиль 0 6000 м дымка {туман} ясно +22.0 +21.7 98 +29 +31 очень
душно
1012.7 990.0 +20.0
15 13.07 СЗ 5 50 км 4/4 600 м
[Cu hum]
+28.6 +23.9 76 +40 +43 очень
душно
1013.6 991.0
18 13.07 СЗ 6 20 км 1/1 600 м
[Cu med, cong]
+30.5 +22.6 63 +40 +44 очень
душно
1010.7 988.4
21 13.07 СЗ 3 20 км 5/0 2000 м
[Ac trans]
+29.0 +22.1 66 +37 +38 очень
душно
1009.0 986.5 +30.8
12 14.07 штиль 0 8000 м дым 3/0 2000 м
[Ac trans]
+21.0 +20.7 98 +26 +28 душно 1012.4 989.7 +20.0
15 14.07 СЗ 2 20 км 1/0 2000 м
[Ac trans]
+28.8 +23.9 75 +40 +52 опасность
солнечного
удара
1012.3 989.9
18 14.07 СВ 3 8000 м осадки на расстоянии 8/5 600 м
[Cb cap Ac trans]
+29.2 +24.3 75 +41 +44 опасность
перегрева
1011.0 988.6
21 14.07 СЗ 2 20 км 8/1 600 м
[Cu hum Ac trans]
+29.0 +23.7 73 +40 +40 очень
душно
1008.8 986.3 +30.4
12 15.07 штиль 0 3000 м дымка {туман} ясно +21.3 +21.2 99 +27 +29 душно 1012.8 990.0 +19.4
15 15.07 СЗ 2 50 км 8/0 2000 м
[Ac trans]
+29.8 +23.4 69 +40 +47 очень
душно
1013.6 991.0
18 15.07 С 2 20 км 8/4 600 м
[Cu med, cong Ac trans]
+30.5 +23.4 66 +41 +45 опасность
перегрева
1011.6 989.3
21 15.07 СЗ 2 20 км 8/0 2000 м
[Ac trans]
+29.4 +23.2 69 +39 +40 очень
душно
1009.6 987.1 +30.6
12 16.07 Ю 3 20 км 10/5 450 м
[Sc As op]
+21.0 +18.9 88 +26 +26 душно 1017.3 994.5 +19.6
15 16.07 Ю 3 20 км 10/8 300 м
[St As op]
+21.0 +19.2 89 +26 +27 душно 1018.6 995.8
18 16.07 Ю 4 50 км 9/8 500 м
[Sc diur, vesp Ac trans]
+23.0 +19.2 79 +29 +30 очень
душно
1016.5 993.8
21 16.07 ЮВ 3 50 км 6/1 500 м
[Sc diur, vesp Ac trans]
+22.8 +18.6 77 +29 +29 очень
душно
1014.4 991.6 +24.5
12 17.07 ЮЗ 2 50 км 8/0 2000 м
[Ac trans]
+19.4 +18.6 95 +22 +23 комфорт 1016.5 993.9 +18.0
15 17.07 Ю 4 50 км 8/0 2000 м
[Ac trans]
+24.0 +19.7 77 +29 +34 душно 1017.6 995.2
18 17.07 Ю 3 20 км ясно +27.8 +21.8 70 +36 +47 очень
душно
1015.6 992.9
21 17.07 ЮЗ 2 20 км ясно +28.2 +20.8 64 +35 +36 очень
душно
1013.9 991.2 +29.6

 

Местоположение метеостанции Сан-Борха (Боливия): широта -14.86 долгота -66.86 высота над уровнем моря 194 м.

В архиве по умолчанию представлена погода в Сан-Борхе за последнюю неделю. Архивные данные за месяц целиком и за предыдущие месяцы, начиная с января 2011 года, Вы можете получить, выбрав интересующий диапазон дат из раскрывающегося списка и нажав кнопку "Ввод!".


*Определитесь, кто Вы:
робот инопланетянин человек

Внимание! Время в таблицах - всемирное. Для получения местного времени необходимо прибавить поправку, которая равна -4 ч.

Смотрите также архив погоды в соседних городах и на ближайших метеорологических станциях:

Погода в Санта-Розе (Боливия) (77 км)
Погода в Рейесе (Боливия) (83 км)
Погода в Рурренабаке (Боливия) (87 км)
Погода в Сан Игнасио де Moксосе (Боливия) (136 км)
Погода в Санта-Ане (Боливия) (197 км)
Погода в Бауресе (Боливия) (197 км)
Погода в Тринидаде (Боливия) (210 км)
Погода в Овежуйо (Боливия) (224 км)
Погода в Ла-Пасе (Боливия) (232 км)
Погода в Сан-Рамоне (Боливия) (291 км)

Пояснения к столбцам:

Ветер - указаны скорость ветра в м/с - средняя за 10 мин, порывы в срок и между сроками (в фигурных скобках) и направление, откуда дует ветер: С - северный, СВ - северо-восточный, В - восточный, ЮВ - юго-восточный, Ю - южный, ЮЗ - юго-западный, З - западный, СЗ - северо-западный.
Видимость - горизонтальная дальность видимости в метрах или километрах. При видимости от 1 до 10 км при отсутствии осадков обычно наблюдается дымка, при ухудшении видимости до 1 км и менее - туман. В сухую погоду видимость может ухудшаться дымом, пылью или мглою.
Явления - указаны атмосферные явления, наблюдавшиеся в срок или в последний час перед сроком; фигурными скобками обозначены явления, наблюдавшиеся между сроками (за 1-3 часа до срока); квадратными скобками обозначены град или гололедные отложения с указанием их диаметра в мм.
Облачность - указаны через наклонную черту общая и нижняя облачность в баллах и высота нижней границы облаков в метрах; квадратными скобками обозначены формы облаков: Ci - перистые, Cs - перисто-слоистые, Cc - перисто-кучевые, Ac - высококучевые, As - высокослоистые, Sc - слоисто-кучевые, Ns - слоисто-дождевые, Cu - кучевые, Cb - кучево-дождевые. Подробнее классификацию облаков см. в Атласе облаков (PDF).
T - Температура воздуха - температура, измеренная на высоте 2 м над землей.
Td - Температура точки росы - температура, при понижении до которой содержащийся в воздухе водяной пар достигнет насыщения.
f - Относительная влажность воздуха - влажноcть воздуха, измеренная на высоте 2 м над землей.
Te - Эффективная температура - температура, которую ощущает одетый по сезону человек в тени. Характеристика душности погоды. При расчете учитывается влияние влажности воздуха и скорости ветра на теплоощущения человека.
Tes - Эффективная температура на солнце - температура, которую ощущает человек, с поправкой на солнечный нагрев. Характеристика знойности погоды. Зависит от высоты солнца над горизонтом, облачности и скорости ветра. Ночью, в пасмурную погоду, а также при ветре 12 м/с и более поправка равна нулю.
P - Атмосферное давление - приведенное к уровню моря атмосферное давление.
Po - Атмосферное давление - измеренное на уровне метеостанции атмосферное давление.
Tmin - Минимальная температура - минимум температуры воздуха на высоте 2 м над землей.
Tmax - Максимальная температура - максимум температуры воздуха на высоте 2 м над землей.
R - Количество осадков - Количество выпавших осадков за период времени, мм. При наведении курсора мыши на число - период времени, за который выпало указанное количество осадков.
R24 - Количество осадков - Количество выпавших осадков за 24 часа, мм.
S - Снежный покров - Высота снежного покрова, см. При наведении курсора мыши на число - состояние снежного покрова и степень покрытия местности в баллах.